Content
SEND FEEDBACK

Daily
Averages
Monthly
Summary
United States of America

BERKELEY, MISSOURI


Home > North America > United States > Missouri
Elevation: 564 feet     Latitude: 38 45N     Longitude: 090 22W

WEATHER
 
SELECT A DAY
Number of Records: 206,743;   Date Range: 1/1/95 - 10/30/14
 
SHARE

PRINT THIS DATA

[ ← Previous Day ]
WEATHER ALMANAC - MARCH 22, 2013
[ Next Day → ]
[ °C ]   °F
Weather ElementAverageHighLow
Temperature37.3 °F43 °F (2:51 pm)32 °F (1:51 am)
Dewpoint21.1 °F24.1 °F (8:51 pm)19 °F (1:51 am)
Humidity52.7 %61 % (2:51 am)40 % (3:51 pm)
Barometer30.05 in30.08 in (8:51 am)30.01 in (5:51 pm)
Wind Speed7.3 mph10.4 mph (8:51 pm)
Weather ElementAverage
Visibility10 mi
Wind DirectionESE (107 °)

Weather ElementTotal
Precipitation---
Heating Degree Days27.5 (Base 65)
Averaged from 23 records on March 22, 2013
WEATHER CONDITIONS BREAKOUT
WIND DIRECTION BREAKOUT
WEATHER BY HOUR - MARCH 22, 2013
[ °C ]   °F
Local TimeTemperatureDewpointHumidityBarometerVisibilityWind DirectionWind SpeedGust SpeedPrecipitationEventsConditions
1:51 AM32.0 °F19.0 °F59 %30.05 in10.0 miESE (110°)9.2 mphMostly Cloudy
2:51 AM32.0 °F19.9 °F61 %30.06 in10.0 miESE (120°)8.1 mphOvercast
3:51 AM33.1 °F19.0 °F56 %30.04 in10.0 miESE (120°)6.9 mphOvercast
4:51 AM33.1 °F19.9 °F59 %30.04 in10.0 miEast (100°)5.8 mphOvercast
5:51 AM32.0 °F19.9 °F61 %30.05 in10.0 miEast (100°)5.8 mphOvercast
6:51 AM32.0 °F19.9 °F61 %30.05 in10.0 miEast (80°)6.9 mphMostly Cloudy
7:51 AM32.0 °F19.9 °F61 %30.07 in10.0 miEast (100°)8.1 mphOvercast
8:51 AM33.1 °F21.0 °F61 %30.08 in10.0 miEast (90°)9.2 mphOvercast
9:51 AM34.0 °F21.9 °F61 %30.08 in10.0 miEast (100°)9.2 mphOvercast
10:51 AM35.1 °F21.0 °F57 %30.08 in10.0 miEast (100°)6.9 mphOvercast
11:51 AM37.0 °F21.0 °F52 %30.07 in10.0 miEast (90°)6.9 mphOvercast
12:51 PM39.9 °F21.9 °F49 %30.05 in10.0 miESE (110°)8.1 mphMostly Cloudy
1:51 PM41.0 °F21.0 °F45 %30.04 in10.0 miESE (110°)8.1 mphOvercast
2:51 PM43.0 °F21.0 °F42 %30.02 in10.0 miSouth (170°)8.1 mphOvercast
3:51 PM43.0 °F19.9 °F40 %30.02 in10.0 miSouth (180°)5.8 mphOvercast
4:51 PM43.0 °F21.0 °F42 %30.02 in10.0 miSSE (160°)5.8 mphOvercast
5:51 PM42.1 °F21.9 °F45 %30.01 in10.0 miSE (140°)5.8 mphOvercast
6:51 PM42.1 °F21.9 °F45 %30.02 in10.0 miEast (100°)8.1 mphOvercast
7:51 PM41.0 °F21.9 °F47 %30.03 in10.0 miEast (90°)6.9 mphOvercast
8:51 PM39.9 °F24.1 °F53 %30.04 in10.0 miENE (70°)10.4 mphOvercast
9:51 PM39.0 °F23.0 °F53 %30.06 in10.0 miEast (80°)5.8 mphOvercast
10:51 PM39.0 °F23.0 °F53 %30.06 in10.0 miENE (70°)5.8 mphOvercast
11:51 PM39.0 °F21.9 °F50 %30.06 in10.0 miENE (70°)6.9 mphOvercast
Hourly data recorded from KSTL, located miles away from Berkeley, Missouri







STORIES FROM OUR PARTNERS